Texico, NM

1:14 PM MDT on September 26, 2016 (GMT -0600)
Clovis Municipal

Weather History for KCVN - January, 2013

Change the Weather History Date:

Monday, January 7, 2013

  Actual Average Record
Temperature  
Mean Temperature 36 °F -  
Max Temperature 50 °F 47 °F 73 °F (1969)
Min Temperature 23 °F 21 °F -2 °F (1913)
Degree Days  
Heating Degree Days 28    
Moisture  
Dew Point 20 °F    
Average Humidity 59    
Maximum Humidity 74    
Minimum Humidity 37    
Precipitation  
Precipitation 0.00 in - - ()
Sea Level Pressure  
Sea Level Pressure 30.08 in    
Wind  
Wind Speed 9 mph (SSW)    
Max Wind Speed 15 mph    
Max Gust Speed 18 mph    
Visibility 10 miles    
Events      
Averages and records for this station are not official NWS values.
T = Trace of Precipitation, MM = Missing Value Source: NWS Daily Summary

Daily Weather History Graph

Daily Weather History Graph

Search for Another Location

Airport or City:

Trip Planner

Search our weather history database for the weather conditions in past years. The results will help you decide how hot, cold, wet, or windy it might be!

Date:

Astronomy

Jan. 07, 2013 Rise Set
Actual Time 6:59 AM MST 4:58 PM MST
Civil Twilight 6:31 AM MST 5:25 PM MST
Nautical Twilight 6:00 AM MST 5:57 PM MST
Astronomical Twilight 5:30 AM MST 6:27 PM MST
Moon 2:28 AM MST (1/7) 1:08 PM MST (1/7)
Length of Visible Light 10h 54m
Length of Day
9h 58m
Waning Crescent, 22% of the Moon is Illuminated
Jan 7
Waning Crescent
Jan 11
New
Jan 18
First Quarter
Jan 26
Full
Feb 3
Last Quarter

Hourly Weather History & Observations

Time (MST) Temp. Windchill Dew Point Humidity Pressure Visibility Wind Dir Wind Speed Gust Speed Precip Events Conditions
12:15 AM 26.6 °F 18.2 °F 17.6 °F 69% 30.20 in 10.0 mi SW 8.1 mph - N/A   Clear
12:35 AM 24.8 °F 16.9 °F 15.8 °F 69% 30.20 in 10.0 mi SW 6.9 mph - N/A   Clear
12:55 AM 24.8 °F 16.9 °F 15.8 °F 69% 30.20 in 10.0 mi SSW 6.9 mph - N/A   Clear
1:15 AM 23.0 °F 12.4 °F 15.8 °F 74% 30.20 in 10.0 mi SW 10.4 mph - N/A   Clear
1:35 AM 23.0 °F 13.1 °F 14.0 °F 68% 30.19 in 10.0 mi SSW 9.2 mph - N/A   Clear
1:55 AM 23.0 °F 12.4 °F 15.8 °F 74% 30.18 in 10.0 mi SSW 10.4 mph - N/A   Clear
2:15 AM 23.0 °F 14.7 °F 15.8 °F 74% 30.18 in 10.0 mi SW 6.9 mph - N/A   Clear
2:35 AM 24.8 °F 15.3 °F 17.6 °F 74% 30.18 in 10.0 mi SW 9.2 mph - N/A   Clear
2:55 AM 24.8 °F 16.1 °F 15.8 °F 69% 30.18 in 10.0 mi SW 8.1 mph - N/A   Clear
3:15 AM 24.8 °F 16.9 °F 15.8 °F 69% 30.17 in 10.0 mi WSW 6.9 mph - N/A   Clear
3:35 AM 26.6 °F 18.2 °F 17.6 °F 69% 30.17 in 10.0 mi WSW 8.1 mph - N/A   Clear
3:55 AM 24.8 °F 16.1 °F 17.6 °F 74% 30.16 in 10.0 mi WSW 8.1 mph - N/A   Clear
4:15 AM 26.6 °F 18.2 °F 17.6 °F 69% 30.15 in 10.0 mi SW 8.1 mph - N/A   Clear
4:35 AM 26.6 °F 17.5 °F 17.6 °F 69% 30.14 in 10.0 mi SW 9.2 mph - N/A   Clear
5:15 AM 24.8 °F 15.3 °F 17.6 °F 74% 30.13 in 10.0 mi SSW 9.2 mph - N/A   Clear
5:35 AM 26.6 °F 17.5 °F 17.6 °F 69% 30.13 in 10.0 mi SSW 9.2 mph - N/A   Clear
5:55 AM 26.6 °F 17.5 °F 17.6 °F 69% 30.13 in 10.0 mi SSW 9.2 mph - N/A   Clear
6:15 AM 26.6 °F 18.2 °F 19.4 °F 74% 30.13 in 10.0 mi South 8.1 mph - N/A   Clear
6:35 AM 28.4 °F 20.4 °F 19.4 °F 69% 30.14 in 10.0 mi SW 8.1 mph - N/A   Clear
6:55 AM 26.6 °F 18.2 °F 17.6 °F 69% 30.15 in 10.0 mi SW 8.1 mph - N/A   Clear
7:15 AM 28.4 °F 21.2 °F 19.4 °F 69% 30.15 in 10.0 mi SW 6.9 mph - N/A   Clear
7:35 AM 28.4 °F 22.2 °F 19.4 °F 69% 30.15 in 10.0 mi SW 5.8 mph - N/A   Clear
7:55 AM 28.4 °F 23.3 °F 19.4 °F 69% 30.15 in 10.0 mi SW 4.6 mph - N/A   Clear
8:15 AM 30.2 °F 25.4 °F 21.2 °F 69% 30.15 in 10.0 mi SW 4.6 mph - N/A   Clear
8:35 AM 33.8 °F 27.7 °F 21.2 °F 60% 30.15 in 10.0 mi SSW 6.9 mph - N/A   Clear
8:55 AM 33.8 °F 27.7 °F 21.2 °F 60% 30.15 in 10.0 mi SW 6.9 mph - N/A   Clear
9:15 AM 35.6 °F 28.0 °F 21.2 °F 56% 30.16 in 10.0 mi SW 10.4 mph - N/A   Clear
9:35 AM 37.4 °F 29.8 °F 23.0 °F 56% 30.17 in 10.0 mi SW 11.5 mph - N/A   Clear
9:55 AM 39.2 °F 31.2 °F 21.2 °F 49% 30.16 in 10.0 mi SSW 13.8 mph - N/A   Clear
10:15 AM 39.2 °F 31.6 °F 21.2 °F 49% 30.15 in 10.0 mi SSW 12.7 mph - N/A   Clear
10:35 AM 39.2 °F 31.2 °F 24.8 °F 56% 30.14 in 10.0 mi SSW 13.8 mph - N/A   Clear
10:55 AM 41.0 °F 33.9 °F 24.8 °F 53% 30.13 in 10.0 mi SSW 12.7 mph - N/A   Clear
11:15 AM 41.0 °F 34.3 °F 21.2 °F 45% 30.11 in 10.0 mi South 11.5 mph - N/A   Clear
11:35 AM 42.8 °F 35.4 °F 24.8 °F 49% 30.10 in 10.0 mi South 15.0 mph - N/A   Clear
11:55 AM 44.6 °F 38.1 °F 24.8 °F 46% 30.08 in 10.0 mi SSW 13.8 mph - N/A   Clear
12:15 PM 42.8 °F 35.8 °F 24.8 °F 49% 30.06 in 10.0 mi South 13.8 mph - N/A   Clear
12:35 PM 44.6 °F 38.8 °F 24.8 °F 46% 30.05 in 10.0 mi South 11.5 mph 17.3 mph N/A   Clear
12:55 PM 46.4 °F 40.4 °F 24.8 °F 43% 30.04 in 10.0 mi South 13.8 mph - N/A   Clear
1:15 PM 46.4 °F 40.4 °F 24.8 °F 43% 30.02 in 10.0 mi SSE 13.8 mph - N/A   Clear
1:55 PM 48.2 °F - 24.8 °F 40% 30.01 in 10.0 mi South 9.2 mph - N/A   Clear
2:15 PM 50.0 °F - 24.8 °F 37% 30.01 in 10.0 mi South 13.8 mph - N/A   Clear
2:35 PM 50.0 °F - 24.8 °F 37% 30.00 in 10.0 mi SSE 13.8 mph 18.4 mph N/A   Clear
2:55 PM 50.0 °F - 24.8 °F 37% 30.00 in 10.0 mi South 10.4 mph 18.4 mph N/A   Clear
3:15 PM 48.2 °F - 24.8 °F 40% 30.00 in 10.0 mi South 12.7 mph - N/A   Clear
3:35 PM 48.2 °F - 24.8 °F 40% 30.01 in 10.0 mi South 9.2 mph - N/A   Clear
4:15 PM 48.2 °F - 26.6 °F 43% 30.00 in 10.0 mi South 15.0 mph - N/A   Clear
4:35 PM 46.4 °F 40.7 °F 24.8 °F 43% 30.01 in 10.0 mi South 12.7 mph - N/A   Clear
4:55 PM 42.8 °F 37.0 °F 24.8 °F 49% 30.00 in 10.0 mi South 10.4 mph - N/A   Clear
5:15 PM 39.2 °F 33.6 °F 23.0 °F 52% 30.00 in 10.0 mi South 8.1 mph - N/A   Clear
5:35 PM 37.4 °F 32.1 °F 23.0 °F 56% 30.00 in 10.0 mi SSE 6.9 mph - N/A   Clear
5:55 PM 37.4 °F 30.8 °F 21.2 °F 52% 30.00 in 10.0 mi SE 9.2 mph - N/A   Clear
6:15 PM 37.4 °F 30.8 °F 23.0 °F 56% 30.01 in 10.0 mi SSE 9.2 mph - N/A   Clear
6:35 PM 37.4 °F 30.8 °F 23.0 °F 56% 30.01 in 10.0 mi SSE 9.2 mph - N/A   Clear
6:55 PM 35.6 °F 28.6 °F 21.2 °F 56% 30.01 in 10.0 mi SE 9.2 mph - N/A   Clear
7:15 PM 35.6 °F 28.6 °F 21.2 °F 56% 30.01 in 10.0 mi SSE 9.2 mph - N/A   Clear
7:35 PM 35.6 °F 29.2 °F 21.2 °F 56% 30.02 in 10.0 mi SSE 8.1 mph - N/A   Clear
7:55 PM 33.8 °F 27.7 °F 19.4 °F 56% 30.02 in 10.0 mi SSE 6.9 mph - N/A   Clear
8:35 PM 30.2 °F 24.3 °F 19.4 °F 64% 30.02 in 10.0 mi South 5.8 mph - N/A   Clear
8:55 PM 30.2 °F 24.3 °F 19.4 °F 64% 30.01 in 10.0 mi South 5.8 mph - N/A   Clear
9:15 PM 30.2 °F 22.6 °F 19.4 °F 64% 30.01 in 10.0 mi South 8.1 mph - N/A   Clear
9:35 PM 30.2 °F 24.3 °F 19.4 °F 64% 30.01 in 10.0 mi South 5.8 mph - N/A   Clear
9:55 PM 30.2 °F 22.6 °F 19.4 °F 64% 30.00 in 10.0 mi South 8.1 mph - N/A   Clear
10:15 PM 28.4 °F 20.4 °F 15.8 °F 59% 30.00 in 10.0 mi South 8.1 mph - N/A   Clear
10:35 PM 28.4 °F 21.2 °F 19.4 °F 69% 29.99 in 10.0 mi South 6.9 mph - N/A   Clear
10:55 PM 26.6 °F 18.2 °F 17.6 °F 69% 29.99 in 10.0 mi SSW 8.1 mph - N/A   Clear
11:15 PM 26.6 °F 18.2 °F 17.6 °F 69% 29.98 in 10.0 mi South 8.1 mph - N/A   Clear
11:35 PM 26.6 °F 19.1 °F 19.4 °F 74% 29.97 in 10.0 mi SSW 6.9 mph - N/A   Clear
11:55 PM 26.6 °F 19.1 °F 17.6 °F 69% 29.97 in 10.0 mi SW 6.9 mph - N/A   Clear